Printer-friendly version

IAU Minor Planet Center

Minor Planet Center

MPEC 2000-P33: 2000 PJ5

The following Minor Planet Electronic Circular may be linked-to from your own Web pages, but must not otherwise be redistributed electronically.


Read MPEC 2000-P32 Read MPEC 2000-P34


M.P.E.C. 2000-P33                                Issued 2000 Aug. 7, 19:22 UT

     The Minor Planet Electronic Circulars contain information on unusual
         minor planets and routine data on comets.  They are published
   on behalf of Commission 20 of the International Astronomical Union by the
          Minor Planet Center, Smithsonian Astrophysical Observatory,
                          Cambridge, MA 02138, U.S.A.

             Prepared using the Tamkin Foundation Computer Network

                              MPC@CFA.HARVARD.EDU
          URL http://cfa-www.harvard.edu/iau/mpc.html  ISSN 1523-6714

                                   2000 PJ5

Observations:
     K00P05J* C2000 08 04.14359 15 51 38.44 +15 31 53.0          17.9        704
     K00P05J  C2000 08 04.15748 15 51 39.12 +15 30 08.1          17.7        704
     K00P05J  C2000 08 04.17138 15 51 39.85 +15 28 23.2          18.4        704
     K00P05J  C2000 08 04.18526 15 51 40.50 +15 26 38.5          18.5        704
     K00P05J  C2000 08 04.19915 15 51 41.25 +15 24 54.1          18.5        704
     K00P05J  C2000 08 04.89920 15 52 21.77 +13 57 35.1                      611
     K00P05J  C2000 08 04.90052 15 52 21.87 +13 57 23.5                      611
     K00P05J  C2000 08 04.90196 15 52 21.96 +13 57 13.6                      611
     K00P05J  C2000 08 04.90459 15 52 22.06 +13 56 54.3                      611
     K00P05J  C2000 08 04.90698 15 52 22.30 +13 56 37.4                      611
     K00P05J  C2000 08 05.20502 15 52 39.39 +13 19 56.8                      711
     K00P05J IC2000 08 05.20803 15 52 39.57 +13 19 34.8                      711
     K00P05J  C2000 08 05.21117 15 52 39.71 +13 19 11.1                      711
     K00P05J  C2000 08 06.21839 15 53 38.82 +11 16 40.5                      670
     K00P05J  C2000 08 06.22429 15 53 39.19 +11 15 56.3                      670
     K00P05J  C2000 08 06.52796 15 53 56.94 +10 39 55.7          17.7 R      422
     K00P05J  C2000 08 06.53192 15 53 57.08 +10 39 22.1          17.4 R      422
     K00P05J  C2000 08 06.53377 15 53 57.07 +10 39 09.7          17.4 R      422
     K00P05J  C2000 08 06.83216 15 54 15.36 +10 03 12.9          17.3 R      118
     K00P05J  C2000 08 06.83947 15 54 15.60 +10 02 22.5                      118
     K00P05J  C2000 08 06.84054 15 54 15.71 +10 02 13.2                      118
     K00P05J  C2000 08 06.86618 15 54 17.17 +09 59 11.1                      557
     K00P05J  C2000 08 06.86712 15 54 17.13 +09 59 05.0                      557
     K00P05J  C2000 08 07.09596 15 54 31.21 +09 32 02.7                      739
     K00P05J  C2000 08 07.09998 15 54 31.36 +09 31 35.6                      739
     K00P05J  C2000 08 07.10109 15 54 31.37 +09 31 28.7                      739

Observer details:
118 Modra.  Observers A. Galad, J. Toth.  0.6-m f/5.5 reflector + CCD.
422 Loomberah.  Observer G. J. Garradd.  0.45-m f/5.4 reflector + CCD.
557 Ondrejov.  Observer L. Sarounova.  0.65-m f/3.6 reflector + CCD.
611 Starkenburg.  Observers S. Kluegl, M. Busch, R. Stoss.  0.45-m f/4.4
    reflector + CCD.
670 Camarillo.  Observer J. E. Rogers.  0.30-m f/6.7 Helin Telescope + CCD.
704 Lincoln Laboratory ETS, New Mexico.  Observers M. Blythe, F. Shelly,
    M. Bezpalko, M. Elowitz, R. Huber, L. Manguso.  Measurers J. Stuart,
    R. Sayer, J. B. Evans, H. Viggh.  1.0-m f/2.15 reflector + CCD.
711 McDonald Observatory.  Observers P. J. Shelus, J. G. Ries.  0.76-m
    reflector + CCD.
739 Sunflower Observatory, Olathe.  Observer L. Robinson.  0.25-m
    Schmidt-Cassegrain + CCD.

Orbital elements:
2000 PJ5
Epoch 2000 Aug. 4.0 TT = JDT 2451760.5                  Hergenrother
M 136.41243              (2000.0)            P               Q
n   1.22865389     Peri.    6.45076     -0.62731933     -0.45690047
a   0.8633423      Node   124.89087     +0.67573148     -0.72190043
e   0.3797385      Incl.   50.25080     +0.38711423     +0.51971312
P   0.80           H   16.9           G   0.15
From 26 observations 2000 Aug. 4-7.

Ephemeris:
2000 PJ5                 a,e,i = 0.86, 0.38, 50                  q = 0.5355
Date    TT    R. A. (2000) Decl.     Delta      r     Elong.  Phase     V
2000 08 04    15 51.51   +15 50.1    0.404    1.141    97.7    61.8    17.4
2000 08 14    16 01.61   -02 49.2    0.466    1.165    97.0    59.6    17.7
2000 08 24    16 12.97   -16 27.6    0.558    1.182    93.2    58.7    18.1
2000 09 03    16 25.89   -26 06.4    0.665    1.190    88.1    57.9    18.5
2000 09 13    16 40.50   -33 06.2    0.775    1.190    82.8    57.0    18.8
2000 09 23    16 56.82   -38 23.3    0.882    1.183    77.4    55.9    19.0
2000 10 03    17 15.03   -42 32.4    0.979    1.167    72.3    54.7    19.2
2000 10 13    17 35.20   -45 54.7    1.062    1.144    67.4    53.6    19.3
2000 10 23    17 57.48   -48 42.2    1.129    1.112    62.8    52.7    19.3
2000 11 02    18 22.07   -51 02.1    1.174    1.073    58.7    52.2    19.3
2000 11 12    18 49.14   -52 57.5    1.195    1.025    55.0    52.3    19.3
2000 11 22    19 18.77   -54 28.1    1.190    0.970    51.9    53.2    19.2

2001 04 11    21 48.89   +16 55.2    1.148    0.946    51.7    56.2    19.1
2001 04 21    22 07.54   +15 41.7    1.144    1.004    55.3    55.3    19.2
2001 05 01    22 26.55   +14 19.7    1.114    1.055    59.4    55.3    19.3
2001 05 11    22 46.08   +12 43.1    1.061    1.098    63.9    55.7    19.3
2001 05 21    23 06.44   +10 44.1    0.991    1.132    68.8    56.5    19.2
2001 05 31    23 28.04   +08 10.3    0.908    1.159    74.0    57.2    19.1
2001 06 10    23 51.55   +04 44.4    0.815    1.178    79.3    57.9    18.9
2001 06 20    00 17.99   +00 02.4    0.719    1.188    84.6    58.4    18.7
2001 06 30    00 48.83   -06 27.8    0.628    1.191    89.6    58.6    18.4
2001 07 10    01 26.46   -15 16.6    0.550    1.186    93.6    58.8    18.1
2001 07 20    02 14.34   -26 20.9    0.496    1.173    95.5    59.6    17.9
2001 07 30    03 16.40   -38 09.4    0.478    1.152    94.0    61.6    17.8

Carl W. Hergenrother         (C) Copyright 2000 MPC           M.P.E.C. 2000-P33

Read MPEC 2000-P32 Read MPEC 2000-P34


Our Web policy. Index to the CBAT/MPC/ICQ pages.


Valid HTML 4.01!